User: anonymous   Login
Location: La Vergne
(36.0160°N, 86.5820°W)
Time: 14:03:40
(UTC-06:00)
Language:

Cosmos 1703 Rocket - Orbit

View from above orbital plane
View from above orbital plane
View from above satellite
View from above satellite

Ground track
Ground track

The orbit data is extracted from the following two-line orbital elements,

1 16263U 85108B   17017.77166483  .00000061  00000-0  45290-5 0  9990
2 16263  82.5031 255.4190 0021399 121.3602 286.1199 14.82964999682096
Epoch (UTC): 17 January 2017 18:31:11
Eccentricity: 0.0021399
inclination: 82.5031°
perigee height: 605 km
apogee height: 635 km
right ascension of ascending node: 255.4190°
argument of perigee: 121.3602°
revolutions per day: 14.82964999
mean anomaly at epoch: 286.1199°
orbit number at epoch: 68209

The dashed part of the orbit path shows where the satellite is in the earth's shadow,  

DLR